Branson, MO

8:23 AM CDT on May 30, 2017 (GMT -0500)
Branson

Weather History for KBBG - November, 2013

Change the Weather History Date:

Monday, November 25, 2013

  Actual Average (KHRO) Record (KHRO)
Temperature  
Mean Temperature 29 °F -  
Max Temperature 32 °F 53 °F 77 °F (1990)
Min Temperature 26 °F 35 °F 12 °F (1950)
Degree Days  
Heating Degree Days 36    
Moisture  
Dew Point 27 °F    
Average Humidity 87    
Maximum Humidity 100    
Minimum Humidity 64    
Precipitation  
Precipitation 0.00 in - - ()
Sea Level Pressure  
Sea Level Pressure 30.26 in    
Wind  
Wind Speed 5 mph (SE)    
Max Wind Speed 10 mph    
Max Gust Speed -    
Visibility 9 miles    
Events Rain    
Averages and records for this station are not official NWS values.
T = Trace of Precipitation, MM = Missing Value Source: NWS Daily Summary

Daily Weather History Graph

Daily Weather History Graph

Search for Another Location

Airport or City:

Trip Planner

Search our weather history database for the weather conditions in past years. The results will help you decide how hot, cold, wet, or windy it might be!

Date:

Astronomy

Nov. 25, 2013 Rise Set
Actual Time 7:00 AM CST 4:58 PM CST
Civil Twilight 6:32 AM CST 5:26 PM CST
Nautical Twilight 6:00 AM CST 5:58 PM CST
Astronomical Twilight 5:30 AM CST 6:29 PM CST
Moon No Moon Rise 12:24 PM CST (11/25)
Length of Visible Light 10h 54m
Length of Day
9h 58m
Waning Gibbous, 51% of the Moon is Illuminated
Nov 25
Waning Gibbous
Nov 25
Last Quarter
Dec 2
New
Dec 9
First Quarter
Dec 17
Full

Hourly Weather History & Observations

Time (CST) Temp. Windchill Dew Point Humidity Pressure Visibility Wind Dir Wind Speed Gust Speed Precip Events Conditions
12:15 AM 26.6 °F 19.1 °F - N/A% 30.35 in 10.0 mi ESE 6.9 mph - N/A   Overcast
12:35 AM 26.6 °F 18.2 °F - N/A% 30.35 in 10.0 mi SE 8.1 mph - N/A   Overcast
12:55 AM 26.6 °F 17.5 °F - N/A% 30.35 in 10.0 mi SE 9.2 mph - N/A   Overcast
1:15 AM 26.6 °F 18.2 °F - N/A% 30.35 in 10.0 mi SE 8.1 mph - N/A   Overcast
1:35 AM 26.6 °F 18.2 °F - N/A% 30.34 in 10.0 mi SE 8.1 mph - N/A   Overcast
1:55 AM 26.6 °F 19.1 °F - N/A% 30.34 in 10.0 mi SE 6.9 mph - N/A   Overcast
2:15 AM 28.4 °F 19.1 °F - N/A% 30.32 in 10.0 mi ESE 10.4 mph - N/A   Overcast
2:35 AM 26.6 °F 19.1 °F - N/A% 30.32 in 10.0 mi SE 6.9 mph - N/A   Overcast
2:55 AM 28.4 °F 21.2 °F - N/A% 30.32 in 10.0 mi ESE 6.9 mph - N/A   Overcast
3:15 AM 26.6 °F 17.5 °F - N/A% 30.29 in 10.0 mi ESE 9.2 mph - N/A   Overcast
3:35 AM 28.4 °F 24.6 °F - N/A% 30.29 in 10.0 mi SE 3.5 mph - N/A   Overcast
3:55 AM 28.4 °F - - N/A% 30.31 in 10.0 mi Calm Calm - N/A   Overcast
4:15 AM 28.4 °F 22.2 °F - N/A% 30.31 in 10.0 mi SE 5.8 mph - N/A   Overcast
4:35 AM 28.4 °F 22.2 °F - N/A% 30.30 in 10.0 mi SE 5.8 mph - N/A   Overcast
4:55 AM 28.4 °F 22.2 °F - N/A% 30.29 in 10.0 mi SE 5.8 mph - N/A   Overcast
5:15 AM 28.4 °F 21.2 °F - N/A% 30.30 in 10.0 mi SSE 6.9 mph - N/A   Overcast
5:35 AM 28.4 °F 20.4 °F - N/A% 30.28 in 10.0 mi SE 8.1 mph - N/A   Overcast
5:55 AM 28.4 °F 21.2 °F - N/A% 30.27 in 10.0 mi SE 6.9 mph - N/A   Overcast
6:15 AM 28.4 °F 22.2 °F - N/A% 30.29 in 10.0 mi SE 5.8 mph - N/A   Overcast
6:35 AM 28.4 °F 22.2 °F - N/A% 30.29 in 10.0 mi SSE 5.8 mph - N/A   Overcast
6:47 AM 28.4 °F 22.2 °F 17.6 °F 64% 30.29 in 10.0 mi SE 5.8 mph - N/A Rain Light Freezing Rain
7:45 AM 28.4 °F 23.3 °F 19.4 °F 69% 30.29 in 10.0 mi SE 4.6 mph - N/A   Overcast
8:45 AM 28.4 °F - 19.4 °F 69% 30.29 in 10.0 mi Calm Calm - N/A   Overcast
9:45 AM 28.4 °F - 21.2 °F 74% 30.30 in 10.0 mi Calm Calm - N/A Rain Light Freezing Rain
10:50 AM 28.4 °F - 24.8 °F 86% 30.28 in 10.0 mi Calm Calm - N/A   Overcast
11:45 AM 28.4 °F - 28.4 °F 100% 30.25 in 2.5 mi Calm Calm - N/A   Overcast
12:45 PM 30.2 °F - 28.4 °F 93% 30.22 in 2.5 mi Calm Calm - N/A   Overcast
1:13 PM 30.2 °F - 30.2 °F 100% 30.21 in 7.0 mi Calm Calm - N/A   Overcast
1:45 PM 32.0 °F - 30.2 °F 93% 30.21 in 10.0 mi Calm Calm - N/A   Overcast
2:46 PM 32.0 °F - 30.2 °F 93% 30.19 in 6.0 mi Calm Calm - N/A   Overcast
3:45 PM 32.0 °F - 30.2 °F 93% 30.19 in 9.0 mi Calm Calm - N/A   Overcast
4:45 PM 32.0 °F - 30.2 °F 93% 30.20 in 8.0 mi Calm Calm - N/A   Overcast
5:48 PM 32.0 °F 27.5 °F 30.2 °F 93% 30.20 in 3.0 mi NE 4.6 mph - N/A Rain Light Rain
6:46 PM 32.0 °F - 30.2 °F 93% 30.18 in 10.0 mi Calm Calm - N/A   Overcast
7:54 PM 32.0 °F - 30.2 °F 93% 30.19 in 10.0 mi Calm Calm - N/A   Overcast
8:46 PM 32.0 °F - 30.2 °F 93% 30.18 in 10.0 mi Calm Calm - N/A   Overcast
9:15 PM 32.0 °F - - N/A% 30.18 in 10.0 mi Calm Calm - N/A   Overcast
9:35 PM 32.0 °F - - N/A% 30.18 in 8.0 mi Calm Calm - N/A   Overcast
9:55 PM 32.0 °F - - N/A% 30.18 in 8.0 mi Calm Calm - N/A   Overcast
10:15 PM 32.0 °F - - N/A% 30.18 in 10.0 mi Calm Calm - N/A   Overcast
10:35 PM 32.0 °F - - N/A% 30.17 in 9.0 mi Calm Calm - N/A   Overcast
10:55 PM 32.0 °F - - N/A% 30.17 in 9.0 mi Calm Calm - N/A Rain Light Rain
11:15 PM 32.0 °F - - N/A% 30.16 in 5.0 mi Calm Calm - N/A Rain Light Rain
11:35 PM 32.0 °F - - N/A% 30.17 in 9.0 mi Calm Calm - N/A   Overcast
11:55 PM 32.0 °F - - N/A% 30.18 in 8.0 mi Calm Calm - N/A Rain Light Rain